Stevensville, MD

11:42 PM EST on February 21, 2017 (GMT -0500)
Stevensville

Weather History for KW29 - June, 2013

Change the Weather History Date:

Friday, June 21, 2013

  Actual Average (KESN) Record (KESN)
Temperature  
Mean Temperature 70 °F -  
Max Temperature 80 °F 84 °F 98 °F (2012)
Min Temperature 60 °F 64 °F 49 °F (1968)
Cooling Degree Days 5    
Growing Degree Days 20 (Base 50)    
Moisture  
Dew Point 55 °F    
Average Humidity 58    
Maximum Humidity 88    
Minimum Humidity 30    
Precipitation  
Precipitation 0.00 in - - ()
Sea Level Pressure  
Sea Level Pressure 30.28 in    
Wind  
Wind Speed 4 mph (South)    
Max Wind Speed 8 mph    
Max Gust Speed -    
Visibility 10 miles    
Events      
Averages and records for this station are not official NWS values.
T = Trace of Precipitation, MM = Missing Value Source: NWS Daily Summary

Daily Weather History Graph

Daily Weather History Graph

Search for Another Location

Airport or City:

Trip Planner

Search our weather history database for the weather conditions in past years. The results will help you decide how hot, cold, wet, or windy it might be!

Date:

Astronomy

Jun. 21, 2013 Rise Set
Actual Time 5:39 AM EDT 8:34 PM EDT
Civil Twilight 5:07 AM EDT 9:06 PM EDT
Nautical Twilight 4:27 AM EDT 9:47 PM EDT
Astronomical Twilight 3:40 AM EDT 10:33 PM EDT
Moon 6:43 PM EDT (6/21) 3:52 AM EDT (6/21)
Length of Visible Light 15h 58m
Length of Day
14h 54m
Waxing Gibbous, 95% of the Moon is Illuminated
Jun 21
Waxing Gibbous
Jun 23
Full
Jun 30
Last Quarter
Jul 8
New
Jul 15
First Quarter

Hourly Weather History & Observations

Time (EDT) Temp. Heat Index Dew Point Humidity Pressure Visibility Wind Dir Wind Speed Gust Speed Precip Events Conditions
12:12 AM 68.0 °F - 48.2 °F 49% 30.28 in 10.0 mi South 4.6 mph - N/A   Clear
12:32 AM 68.0 °F - 44.6 °F 43% 30.28 in 10.0 mi South 5.8 mph - N/A   Clear
12:52 AM 68.0 °F - 44.6 °F 43% 30.28 in 10.0 mi South 4.6 mph - N/A   Clear
1:12 AM 66.2 °F - 44.6 °F 46% 30.29 in 10.0 mi South 6.9 mph - N/A   Clear
1:32 AM 66.2 °F - 46.4 °F 49% 30.29 in 10.0 mi SSE 4.6 mph - N/A   Clear
1:52 AM 66.2 °F - 44.6 °F 46% 30.30 in 10.0 mi South 4.6 mph - N/A   Clear
2:12 AM 66.2 °F - 44.6 °F 46% 30.30 in 10.0 mi South 4.6 mph - N/A   Clear
2:32 AM 64.4 °F - 46.4 °F 52% 30.30 in 10.0 mi South 3.5 mph - N/A   Clear
2:52 AM 60.8 °F - 50.0 °F 68% 30.30 in 10.0 mi Calm Calm - N/A   Clear
3:12 AM 62.6 °F - 50.0 °F 63% 30.29 in 10.0 mi Calm Calm - N/A   Clear
3:32 AM 62.6 °F - 51.8 °F 68% 30.28 in 10.0 mi ESE 3.5 mph - N/A   Clear
3:52 AM 62.6 °F - 51.8 °F 68% 30.28 in 10.0 mi East 3.5 mph - N/A   Clear
4:13 AM 62.6 °F - 51.8 °F 68% 30.28 in 10.0 mi East 3.5 mph - N/A   Clear
4:33 AM 62.6 °F - 51.8 °F 68% 30.28 in 10.0 mi Calm Calm - N/A   Clear
4:53 AM 60.8 °F - 53.6 °F 77% 30.28 in 10.0 mi Calm Calm - N/A   Clear
5:13 AM 60.8 °F - 53.6 °F 77% 30.28 in 10.0 mi Calm Calm - N/A   Clear
5:33 AM 60.8 °F - 55.4 °F 82% 30.28 in 10.0 mi Calm Calm - N/A   Clear
5:53 AM 60.8 °F - 55.4 °F 82% 30.28 in 10.0 mi Calm Calm - N/A   Clear
6:13 AM 60.8 °F - 57.2 °F 88% 30.28 in 10.0 mi Calm Calm - N/A   Clear
6:33 AM 62.6 °F - 59.0 °F 88% 30.29 in 10.0 mi Calm Calm - N/A   Clear
6:53 AM 62.6 °F - 59.0 °F 88% 30.29 in 10.0 mi Calm Calm - N/A   Clear
7:13 AM 64.4 °F - 59.0 °F 83% 30.30 in 10.0 mi Calm Calm - N/A   Clear
7:33 AM 66.2 °F - 59.0 °F 78% 30.31 in 10.0 mi East 3.5 mph - N/A   Clear
7:53 AM 68.0 °F - 59.0 °F 73% 30.31 in 10.0 mi East 3.5 mph - N/A   Clear
8:13 AM 68.0 °F - 59.0 °F 73% 30.31 in 10.0 mi SE 3.5 mph - N/A   Clear
8:33 AM 69.8 °F - 59.0 °F 68% 30.31 in 10.0 mi ESE 4.6 mph - N/A   Clear
8:53 AM 69.8 °F - 59.0 °F 68% 30.31 in 10.0 mi Calm Calm - N/A   Clear
9:13 AM 69.8 °F - 57.2 °F 64% 30.31 in 10.0 mi Calm Calm - N/A   Clear
9:33 AM 69.8 °F - 59.0 °F 68% 30.31 in 10.0 mi WNW 3.5 mph - N/A   Clear
9:53 AM 71.6 °F - 59.0 °F 64% 30.31 in 10.0 mi WNW 4.6 mph - N/A   Clear
10:13 AM 71.6 °F - 59.0 °F 64% 30.30 in 10.0 mi Calm Calm - N/A   Clear
10:33 AM 71.6 °F - 59.0 °F 64% 30.30 in 10.0 mi Calm Calm - N/A   Clear
10:53 AM 71.6 °F - 59.0 °F 64% 30.31 in 10.0 mi North 4.6 mph - N/A   Clear
11:13 AM 71.6 °F - 57.2 °F 60% 30.31 in 10.0 mi NW 3.5 mph - N/A   Clear
11:33 AM 73.4 °F - 50.0 °F 44% 30.31 in 10.0 mi NE 5.8 mph - N/A   Clear
11:53 AM 75.2 °F - 50.0 °F 41% 30.31 in 10.0 mi Calm Calm - N/A   Clear
12:13 PM 73.4 °F - 51.8 °F 47% 30.31 in 10.0 mi West 5.8 mph - N/A   Clear
12:34 PM 75.2 °F - 51.8 °F 44% 30.31 in 10.0 mi SW 4.6 mph - N/A   Clear
12:54 PM 73.4 °F - 53.6 °F 50% 30.31 in 10.0 mi WNW 4.6 mph - N/A   Clear
1:14 PM 75.2 °F - 53.6 °F 47% 30.31 in 10.0 mi Calm Calm - N/A   Clear
1:34 PM 75.2 °F - 53.6 °F 47% 30.31 in 10.0 mi West 4.6 mph - N/A   Clear
1:54 PM 75.2 °F - 53.6 °F 47% 30.30 in 10.0 mi West 3.5 mph - N/A   Clear
2:14 PM 78.8 °F - 46.4 °F 32% 30.30 in 10.0 mi South 6.9 mph - N/A   Clear
2:34 PM 78.8 °F - 46.4 °F 32% 30.29 in 10.0 mi South 8.1 mph - N/A   Clear
2:54 PM 78.8 °F - 46.4 °F 32% 30.29 in 10.0 mi SSE 5.8 mph - N/A   Clear
3:14 PM 78.8 °F - 44.6 °F 30% 30.29 in 10.0 mi SE 8.1 mph - N/A   Clear
3:34 PM 78.8 °F - 50.0 °F 36% 30.28 in 10.0 mi SSE 6.9 mph - N/A   Clear
3:54 PM 78.8 °F - 50.0 °F 36% 30.28 in 10.0 mi South 4.6 mph - N/A   Clear
4:14 PM 78.8 °F - 55.4 °F 44% 30.28 in 10.0 mi WSW 3.5 mph - N/A   Clear
4:34 PM 78.8 °F - 55.4 °F 44% 30.28 in 10.0 mi WSW 5.8 mph - N/A   Clear
4:54 PM 78.8 °F - 55.4 °F 44% 30.27 in 10.0 mi West 5.8 mph - N/A   Clear
5:14 PM 78.8 °F - 59.0 °F 51% 30.25 in 10.0 mi WSW 5.8 mph - N/A   Clear
5:34 PM 80.6 °F 80.3 °F 53.6 °F 39% 30.25 in 10.0 mi SSE 6.9 mph - N/A   Clear
5:54 PM 80.6 °F 80.8 °F 57.2 °F 45% 30.25 in 10.0 mi South 5.8 mph - N/A   Clear
6:14 PM 78.8 °F - 59.0 °F 51% 30.25 in 10.0 mi South 4.6 mph - N/A   Clear
6:34 PM 78.8 °F - 59.0 °F 51% 30.26 in 10.0 mi SW 5.8 mph - N/A   Clear
6:54 PM 78.8 °F - 59.0 °F 51% 30.25 in 10.0 mi SW 5.8 mph - N/A   Clear
7:14 PM 78.8 °F - 57.2 °F 47% 30.25 in 10.0 mi SW 3.5 mph - N/A   Clear
7:34 PM 77.0 °F - 59.0 °F 54% 30.25 in 10.0 mi Calm Calm - N/A   Clear
7:54 PM 77.0 °F - 59.0 °F 54% 30.25 in 10.0 mi Calm Calm - N/A   Clear
8:14 PM 77.0 °F - 59.0 °F 54% 30.25 in 10.0 mi Calm Calm - N/A   Clear
8:34 PM 77.0 °F - 59.0 °F 54% 30.25 in 10.0 mi Calm Calm - N/A   Clear
8:54 PM 73.4 °F - 60.8 °F 65% 30.25 in 10.0 mi SSE 3.5 mph - N/A   Clear
9:14 PM 73.4 °F - 60.8 °F 65% 30.25 in 10.0 mi SSE 3.5 mph - N/A   Clear
9:35 PM 73.4 °F - 62.6 °F 69% 30.26 in 10.0 mi ESE 4.6 mph - N/A   Clear
9:55 PM 73.4 °F - 62.6 °F 69% 30.26 in 10.0 mi SE 5.8 mph - N/A   Clear
10:15 PM 73.4 °F - 62.6 °F 69% 30.26 in 10.0 mi SE 6.9 mph - N/A   Clear
10:35 PM 71.6 °F - 62.6 °F 73% 30.26 in 10.0 mi SE 6.9 mph - N/A   Clear
10:55 PM 71.6 °F - 62.6 °F 73% 30.25 in 10.0 mi SE 6.9 mph - N/A   Clear
11:15 PM 71.6 °F - 62.6 °F 73% 30.25 in 10.0 mi SE 8.1 mph - N/A   Clear
11:35 PM 71.6 °F - 62.6 °F 73% 30.26 in 10.0 mi SSE 6.9 mph - N/A   Clear
11:55 PM 71.6 °F - 62.6 °F 73% 30.26 in 10.0 mi SSE 6.9 mph - N/A   Clear